Year,Month,Day,Hour,Minute,Value (Times are PST for temperature in C)
2016,12,14,00,00,-4.00
2016,12,14,00,01,-4.00
2016,12,14,00,02,-4.10
2016,12,14,00,03,-4.10
2016,12,14,00,04,-4.10
2016,12,14,00,05,-4.20
2016,12,14,00,06,-4.20
2016,12,14,00,07,-4.30
2016,12,14,00,08,-4.30
2016,12,14,00,09,-4.30
2016,12,14,00,10,-4.30
2016,12,14,00,11,-4.30
2016,12,14,00,12,-4.30
2016,12,14,00,13,-4.30
2016,12,14,00,14,-4.30
2016,12,14,00,15,-4.30
2016,12,14,00,16,-4.30
2016,12,14,00,17,-4.30
2016,12,14,00,18,-4.40
2016,12,14,00,19,-4.40
2016,12,14,00,20,-4.40
2016,12,14,00,21,-4.40
2016,12,14,00,22,-4.40
2016,12,14,00,23,-4.40
2016,12,14,00,24,-4.40
2016,12,14,00,25,-4.30
2016,12,14,00,26,-4.30
2016,12,14,00,27,-4.30
2016,12,14,00,28,-4.30
2016,12,14,00,29,-4.30
2016,12,14,00,30,-4.30
2016,12,14,00,31,-4.30
2016,12,14,00,32,-4.30
2016,12,14,00,33,-4.30
2016,12,14,00,34,-4.30
2016,12,14,00,35,-4.30
2016,12,14,00,36,-4.30
2016,12,14,00,37,-4.30
2016,12,14,00,38,-4.40
2016,12,14,00,39,-4.40
2016,12,14,00,40,-4.40
2016,12,14,00,41,-4.40
2016,12,14,00,42,-4.40
2016,12,14,00,43,-4.50
2016,12,14,00,44,-4.50
2016,12,14,00,45,-4.50
2016,12,14,00,46,-4.60
2016,12,14,00,47,-4.60
2016,12,14,00,48,-4.60
2016,12,14,00,49,-4.60
2016,12,14,00,50,-4.60
2016,12,14,00,51,-4.60
2016,12,14,00,52,-4.60
2016,12,14,00,53,-4.60
2016,12,14,00,54,-4.60
2016,12,14,00,55,-4.60
2016,12,14,00,56,-4.60
2016,12,14,00,57,-4.60
2016,12,14,00,58,-4.60
2016,12,14,00,59,-4.60
2016,12,14,01,00,-4.60
2016,12,14,01,01,-4.60
2016,12,14,01,02,-4.70
2016,12,14,01,03,-4.70
2016,12,14,01,04,-4.70
2016,12,14,01,05,-4.70
2016,12,14,01,06,-4.70
2016,12,14,01,07,-4.70
2016,12,14,01,08,-4.70
2016,12,14,01,09,-4.70
2016,12,14,01,10,-4.70
2016,12,14,01,11,-4.70
2016,12,14,01,12,-4.70
2016,12,14,01,13,-4.70
2016,12,14,01,14,-4.70
2016,12,14,01,15,-4.70
2016,12,14,01,16,-4.70
2016,12,14,01,17,-4.80
2016,12,14,01,18,-4.80
2016,12,14,01,19,-4.80
2016,12,14,01,20,-4.90
2016,12,14,01,21,-4.90
2016,12,14,01,22,-4.90
2016,12,14,01,23,-5.00
2016,12,14,01,24,-5.00
2016,12,14,01,25,-4.90
2016,12,14,01,26,-4.90
2016,12,14,01,27,-4.90
2016,12,14,01,28,-4.90
2016,12,14,01,29,-4.90
2016,12,14,01,30,-4.90
2016,12,14,01,31,-4.90
2016,12,14,01,32,-4.80
2016,12,14,01,33,-4.80
2016,12,14,01,34,-4.80
2016,12,14,01,35,-4.80
2016,12,14,01,36,-4.70
2016,12,14,01,37,-4.70
2016,12,14,01,38,-4.70
2016,12,14,01,39,-4.70
2016,12,14,01,40,-4.70
2016,12,14,01,41,-4.60
2016,12,14,01,42,-4.60
2016,12,14,01,43,-4.60
2016,12,14,01,44,-4.60
2016,12,14,01,45,-4.50
2016,12,14,01,46,-4.50
2016,12,14,01,47,-4.40
2016,12,14,01,48,-4.40
2016,12,14,01,49,-4.40
2016,12,14,01,50,-4.40
2016,12,14,01,51,-4.40
2016,12,14,01,52,-4.30
2016,12,14,01,53,-4.30
2016,12,14,01,54,-4.30
2016,12,14,01,55,-4.30
2016,12,14,01,56,-4.30
2016,12,14,01,57,-4.30
2016,12,14,01,58,-4.30
2016,12,14,01,59,-4.20
2016,12,14,02,00,-4.20
2016,12,14,02,01,-4.20
2016,12,14,02,02,-4.20
2016,12,14,02,03,-4.20
2016,12,14,02,04,-4.20
2016,12,14,02,05,-4.20
2016,12,14,02,06,-4.20
2016,12,14,02,07,-4.20
2016,12,14,02,08,-4.20
2016,12,14,02,09,-4.20
2016,12,14,02,10,-4.20
2016,12,14,02,11,-4.20
2016,12,14,02,12,-4.20
2016,12,14,02,13,-4.20
2016,12,14,02,14,-4.20
2016,12,14,02,15,-4.20
2016,12,14,02,16,-4.20
2016,12,14,02,17,-4.20
2016,12,14,02,18,-4.20
2016,12,14,02,19,-4.20
2016,12,14,02,20,-4.20
2016,12,14,02,21,-4.20
2016,12,14,02,22,-4.20
2016,12,14,02,23,-4.20
2016,12,14,02,24,-4.20
2016,12,14,02,25,-4.20
2016,12,14,02,26,-4.20
2016,12,14,02,27,-4.20
2016,12,14,02,28,-4.20
2016,12,14,02,29,-4.20
2016,12,14,02,30,-4.20
2016,12,14,02,31,-4.20
2016,12,14,02,32,-4.20
2016,12,14,02,33,-4.20
2016,12,14,02,34,-4.20
2016,12,14,02,35,-4.20
2016,12,14,02,36,-4.20
2016,12,14,02,37,-4.20
2016,12,14,02,38,-4.20
2016,12,14,02,39,-4.20
2016,12,14,02,40,-4.20
2016,12,14,02,41,-4.20
2016,12,14,02,42,-4.30
2016,12,14,02,43,-4.30
2016,12,14,02,44,-4.30
2016,12,14,02,45,-4.30
2016,12,14,02,46,-4.30
2016,12,14,02,47,-4.40
2016,12,14,02,48,-4.40
2016,12,14,02,49,-4.40
2016,12,14,02,50,-4.40
2016,12,14,02,51,-4.50
2016,12,14,02,52,-4.50
2016,12,14,02,53,-4.50
2016,12,14,02,54,-4.60
2016,12,14,02,55,-4.50
2016,12,14,02,56,-4.50
2016,12,14,02,57,-4.50
2016,12,14,02,58,-4.50
2016,12,14,02,59,-4.50
2016,12,14,03,00,-4.50
2016,12,14,03,01,-4.50
2016,12,14,03,02,-4.50
2016,12,14,03,03,-4.50
2016,12,14,03,04,-4.50
2016,12,14,03,05,-4.50
2016,12,14,03,06,-4.60
2016,12,14,03,07,-4.60
2016,12,14,03,08,-4.60
2016,12,14,03,09,-4.60
2016,12,14,03,10,-4.60
2016,12,14,03,11,-4.60
2016,12,14,03,12,-4.60
2016,12,14,03,13,-4.60
2016,12,14,03,14,-4.60
2016,12,14,03,15,-4.70
2016,12,14,03,16,-4.70
2016,12,14,03,17,-4.70
2016,12,14,03,18,-4.70
2016,12,14,03,19,-4.70
2016,12,14,03,20,-4.70
2016,12,14,03,21,-4.70
2016,12,14,03,22,-4.70
2016,12,14,03,23,-4.80
2016,12,14,03,24,-4.80
2016,12,14,03,25,-4.80
2016,12,14,03,26,-4.80
2016,12,14,03,27,-4.80
2016,12,14,03,28,-4.80
2016,12,14,03,29,-4.90
2016,12,14,03,30,-4.80
2016,12,14,03,31,-4.90
2016,12,14,03,32,-4.90
2016,12,14,03,33,-4.90
2016,12,14,03,34,-4.90
2016,12,14,03,35,-4.90
2016,12,14,03,36,-4.90
2016,12,14,03,37,-4.90
2016,12,14,03,38,-5.00
2016,12,14,03,39,-5.00
2016,12,14,03,40,-5.00
2016,12,14,03,41,-5.00
2016,12,14,03,42,-4.90
2016,12,14,03,43,-5.00
2016,12,14,03,44,-5.00
2016,12,14,03,45,-4.90
2016,12,14,03,46,-5.00
2016,12,14,03,47,-5.00
2016,12,14,03,48,-5.00
2016,12,14,03,49,-5.00
2016,12,14,03,50,-5.10
2016,12,14,03,51,-5.10
2016,12,14,03,52,-5.10
2016,12,14,03,53,-5.10
2016,12,14,03,54,-5.10
2016,12,14,03,55,-5.00
2016,12,14,03,56,-5.00
2016,12,14,03,57,-4.90
2016,12,14,03,58,-4.90
2016,12,14,03,59,-4.80
2016,12,14,04,00,-4.80
2016,12,14,04,01,-4.80
2016,12,14,04,02,-4.80
2016,12,14,04,03,-4.80
2016,12,14,04,04,-4.80
2016,12,14,04,05,-4.80
2016,12,14,04,06,-4.80
2016,12,14,04,07,-4.90
2016,12,14,04,08,-4.90
2016,12,14,04,09,-4.90
2016,12,14,04,10,-4.90
2016,12,14,04,11,-4.90
2016,12,14,04,12,-4.90
2016,12,14,04,13,-4.90
2016,12,14,04,14,-5.00
2016,12,14,04,15,-5.00
2016,12,14,04,16,-5.00
2016,12,14,04,17,-5.00
2016,12,14,04,18,-5.10
2016,12,14,04,19,-5.10
2016,12,14,04,20,-5.10
2016,12,14,04,21,-5.10
2016,12,14,04,22,-5.10
2016,12,14,04,23,-5.10
2016,12,14,04,24,-5.20
2016,12,14,04,25,-5.20
2016,12,14,04,26,-5.20
2016,12,14,04,27,-5.30
2016,12,14,04,28,-5.30
2016,12,14,04,29,-5.30
2016,12,14,04,30,-5.30
2016,12,14,04,31,-5.30
2016,12,14,04,32,-5.30
2016,12,14,04,33,-5.30
2016,12,14,04,34,-5.30
2016,12,14,04,35,-5.30
2016,12,14,04,36,-5.30
2016,12,14,04,37,-5.20
2016,12,14,04,38,-5.20
2016,12,14,04,39,-5.20
2016,12,14,04,40,-5.20
2016,12,14,04,41,-5.10
2016,12,14,04,42,-5.10
2016,12,14,04,43,-5.10
2016,12,14,04,44,-5.10
2016,12,14,04,45,-5.00
2016,12,14,04,46,-5.00
2016,12,14,04,47,-4.90
2016,12,14,04,48,-4.90
2016,12,14,04,49,-4.90
2016,12,14,04,50,-4.90
2016,12,14,04,51,-4.90
2016,12,14,04,52,-4.90
2016,12,14,04,53,-4.90
2016,12,14,04,54,-4.90
2016,12,14,04,55,-4.90
2016,12,14,04,56,-4.90
2016,12,14,04,57,-4.90
2016,12,14,04,58,-4.90
2016,12,14,04,59,-4.90
2016,12,14,05,00,-4.90
2016,12,14,05,01,-5.00
2016,12,14,05,02,-5.00
2016,12,14,05,03,-5.00
2016,12,14,05,04,-5.00
2016,12,14,05,05,-5.00
2016,12,14,05,06,-5.00
2016,12,14,05,07,-5.00
2016,12,14,05,08,-5.00
2016,12,14,05,09,-5.00
2016,12,14,05,10,-5.00
2016,12,14,05,11,-5.00
2016,12,14,05,12,-5.00
2016,12,14,05,13,-5.00
2016,12,14,05,14,-5.00
2016,12,14,05,15,-5.00
2016,12,14,05,16,-5.10
2016,12,14,05,17,-5.10
2016,12,14,05,18,-5.00
2016,12,14,05,19,-5.00
2016,12,14,05,20,-5.00
2016,12,14,05,21,-5.00
2016,12,14,05,22,-5.00
2016,12,14,05,23,-5.00
2016,12,14,05,24,-5.00
2016,12,14,05,25,-5.00
2016,12,14,05,26,-5.00
2016,12,14,05,27,-5.00
2016,12,14,05,28,-5.00
2016,12,14,05,29,-4.90
2016,12,14,05,30,-4.90
2016,12,14,05,31,-4.90
2016,12,14,05,32,-4.90
2016,12,14,05,33,-4.90
2016,12,14,05,34,-5.00
2016,12,14,05,35,-5.00
2016,12,14,05,36,-5.10
2016,12,14,05,37,-5.10
2016,12,14,05,38,-5.10
2016,12,14,05,39,-5.20
2016,12,14,05,40,-5.20
2016,12,14,05,41,-5.30
2016,12,14,05,42,-5.30
2016,12,14,05,43,-5.30
2016,12,14,05,44,-5.40
2016,12,14,05,45,-5.40
2016,12,14,05,46,-5.30
2016,12,14,05,47,-5.30
2016,12,14,05,48,-5.30
2016,12,14,05,49,-5.20
2016,12,14,05,50,-5.20
2016,12,14,05,51,-5.10
2016,12,14,05,52,-5.10
2016,12,14,05,53,-5.10
2016,12,14,05,54,-5.10
2016,12,14,05,55,-5.10
2016,12,14,05,56,-5.00
2016,12,14,05,57,-5.00
2016,12,14,05,58,-5.00
2016,12,14,05,59,-4.90
2016,12,14,06,00,-4.90
2016,12,14,06,01,-4.90
2016,12,14,06,02,-4.90
2016,12,14,06,03,-4.80
2016,12,14,06,04,-4.80
2016,12,14,06,05,-4.80
2016,12,14,06,06,-4.80
2016,12,14,06,07,-4.80
2016,12,14,06,08,-4.80
2016,12,14,06,09,-4.80
2016,12,14,06,10,-4.80
2016,12,14,06,11,-4.80
2016,12,14,06,12,-4.80
2016,12,14,06,13,-4.80
2016,12,14,06,14,-4.80
2016,12,14,06,15,-4.80
2016,12,14,06,16,-4.80
2016,12,14,06,17,-4.80
2016,12,14,06,18,-4.80
2016,12,14,06,19,-4.70
2016,12,14,06,20,-4.80
2016,12,14,06,21,-4.80
2016,12,14,06,22,-4.80
2016,12,14,06,23,-4.80
2016,12,14,06,24,-4.90
2016,12,14,06,25,-4.90
2016,12,14,06,26,-4.90
2016,12,14,06,27,-5.00
2016,12,14,06,28,-5.00
2016,12,14,06,29,-5.00
2016,12,14,06,30,-5.00
2016,12,14,06,31,-5.00
2016,12,14,06,32,-4.90
2016,12,14,06,33,-4.90
2016,12,14,06,34,-4.90
2016,12,14,06,35,-4.90
2016,12,14,06,36,-4.90
2016,12,14,06,37,-4.90
2016,12,14,06,38,-4.90
2016,12,14,06,39,-4.80
2016,12,14,06,40,-4.80
2016,12,14,06,41,-4.80
2016,12,14,06,42,-4.80
2016,12,14,06,43,-4.80
2016,12,14,06,44,-4.90
2016,12,14,06,45,-5.00
2016,12,14,06,46,-5.00
2016,12,14,06,47,-5.10
2016,12,14,06,48,-5.10
2016,12,14,06,49,-5.20
2016,12,14,06,50,-5.20
2016,12,14,06,51,-5.20
2016,12,14,06,52,-5.20
2016,12,14,06,53,-5.20
2016,12,14,06,54,-5.20
2016,12,14,06,55,-5.20
2016,12,14,06,56,-5.20
2016,12,14,06,57,-5.20
2016,12,14,06,58,-5.20
2016,12,14,06,59,-5.20
2016,12,14,07,00,-5.20
2016,12,14,07,01,-5.20
2016,12,14,07,02,-5.20
2016,12,14,07,03,-5.20
2016,12,14,07,04,-5.20
2016,12,14,07,05,-5.20
2016,12,14,07,06,-5.20
2016,12,14,07,07,-5.10
2016,12,14,07,08,-5.10
2016,12,14,07,09,-5.00
2016,12,14,07,10,-5.00
2016,12,14,07,11,-5.00
2016,12,14,07,12,-5.00
2016,12,14,07,13,-5.00
2016,12,14,07,14,-5.00
2016,12,14,07,15,-5.00
2016,12,14,07,16,-5.00
2016,12,14,07,17,-5.00
2016,12,14,07,18,-5.00
2016,12,14,07,19,-5.00
2016,12,14,07,20,-4.90
2016,12,14,07,21,-4.90
2016,12,14,07,22,-5.00
2016,12,14,07,23,-5.00
2016,12,14,07,24,-5.00
2016,12,14,07,25,-5.00
2016,12,14,07,26,-5.00
2016,12,14,07,27,-5.00
2016,12,14,07,28,-5.00
2016,12,14,07,29,-5.00
2016,12,14,07,30,-5.00
2016,12,14,07,31,-5.00
2016,12,14,07,32,-5.00
2016,12,14,07,33,-5.00
2016,12,14,07,34,-5.00
2016,12,14,07,35,-5.00
2016,12,14,07,36,-4.90
2016,12,14,07,37,-5.00
2016,12,14,07,38,-5.00
2016,12,14,07,39,-5.00
2016,12,14,07,40,-5.00
2016,12,14,07,41,-5.00
2016,12,14,07,42,-5.00
2016,12,14,07,43,-5.00
2016,12,14,07,44,-5.00
2016,12,14,07,45,-5.00
2016,12,14,07,46,-5.00
2016,12,14,07,47,-5.00
2016,12,14,07,48,-5.00
2016,12,14,07,49,-5.00
2016,12,14,07,50,-5.00
2016,12,14,07,51,-5.00
2016,12,14,07,52,-5.00
2016,12,14,07,53,-5.00
2016,12,14,07,54,-5.00
2016,12,14,07,55,-5.00
2016,12,14,07,56,-5.00
2016,12,14,07,57,-5.00
2016,12,14,07,58,-5.00
2016,12,14,07,59,-5.00
2016,12,14,08,00,-5.10
2016,12,14,08,01,-5.10
2016,12,14,08,02,-5.10
2016,12,14,08,03,-5.10
2016,12,14,08,04,-5.20
2016,12,14,08,05,-5.20
2016,12,14,08,06,-5.20
2016,12,14,08,07,-5.20
2016,12,14,08,08,-5.20
2016,12,14,08,09,-5.20
2016,12,14,08,10,-5.20
2016,12,14,08,11,-5.20
2016,12,14,08,12,-5.20
2016,12,14,08,13,-5.20
2016,12,14,08,14,-5.20
2016,12,14,08,15,-5.20
2016,12,14,08,16,-5.20
2016,12,14,08,17,-5.20
2016,12,14,08,18,-5.20
2016,12,14,08,19,-5.20
2016,12,14,08,20,-5.20
2016,12,14,08,21,-5.20
2016,12,14,08,22,-5.30
2016,12,14,08,23,-5.30
2016,12,14,08,24,-5.30
2016,12,14,08,25,-5.30
2016,12,14,08,26,-5.30
2016,12,14,08,27,-5.30
2016,12,14,08,28,-5.30
2016,12,14,08,29,-5.40
2016,12,14,08,30,-5.40
2016,12,14,08,31,-5.40
2016,12,14,08,32,-5.40
2016,12,14,08,33,-5.40
2016,12,14,08,34,-5.30
2016,12,14,08,35,-5.30
2016,12,14,08,36,-5.30
2016,12,14,08,37,-5.30
2016,12,14,08,38,-5.30
2016,12,14,08,39,-5.30
2016,12,14,08,40,-5.30
2016,12,14,08,41,-5.30
2016,12,14,08,42,-5.30
2016,12,14,08,43,-5.30
2016,12,14,08,44,-5.30
2016,12,14,08,45,-5.30
2016,12,14,08,46,-5.30
2016,12,14,08,47,-5.30
2016,12,14,08,48,-5.30
2016,12,14,08,49,-5.30
2016,12,14,08,50,-5.30
2016,12,14,08,51,-5.30
2016,12,14,08,52,-5.30
2016,12,14,08,53,-5.20
2016,12,14,08,54,-5.20
2016,12,14,08,55,-5.20
2016,12,14,08,56,-5.20
2016,12,14,08,57,-5.20
2016,12,14,08,58,-5.20
2016,12,14,08,59,-5.20
2016,12,14,09,00,-5.20
2016,12,14,09,01,-5.10
2016,12,14,09,02,-5.10
2016,12,14,09,03,-5.10
2016,12,14,09,04,-5.10
2016,12,14,09,05,-5.00
2016,12,14,09,06,-5.00
2016,12,14,09,07,-5.00
2016,12,14,09,08,-4.90
2016,12,14,09,09,-4.90
2016,12,14,09,10,-4.90
2016,12,14,09,11,-4.90
2016,12,14,09,12,-4.80
2016,12,14,09,13,-4.80
2016,12,14,09,14,-4.80
2016,12,14,09,15,-4.80
2016,12,14,09,16,-4.70
2016,12,14,09,17,-4.70
2016,12,14,09,18,-4.70
2016,12,14,09,19,-4.70
2016,12,14,09,20,-4.60
2016,12,14,09,21,-4.60
2016,12,14,09,22,-4.60
2016,12,14,09,23,-4.50
2016,12,14,09,24,-4.50
2016,12,14,09,25,-4.40
2016,12,14,09,26,-4.40
2016,12,14,09,27,-4.40
2016,12,14,09,28,-4.40
2016,12,14,09,29,-4.40
2016,12,14,09,30,-4.30
2016,12,14,09,31,-4.30
2016,12,14,09,32,-4.30
2016,12,14,09,33,-4.30
2016,12,14,09,34,-4.30
2016,12,14,09,35,-4.30
2016,12,14,09,36,-4.30
2016,12,14,09,37,-4.30
2016,12,14,09,38,-4.20
2016,12,14,09,39,-4.20
2016,12,14,09,40,-4.20
2016,12,14,09,41,-4.20
2016,12,14,09,42,-4.20
2016,12,14,09,43,-4.20
2016,12,14,09,44,-4.20
2016,12,14,09,45,-4.10
2016,12,14,09,46,-4.10
2016,12,14,09,47,-4.00
2016,12,14,09,48,-4.00
2016,12,14,09,49,-4.00
2016,12,14,09,50,-3.90
2016,12,14,09,51,-3.90
2016,12,14,09,52,-3.90
2016,12,14,09,53,-3.80
2016,12,14,09,54,-3.80
2016,12,14,09,55,-3.80
2016,12,14,09,56,-3.80
2016,12,14,09,57,-3.70
2016,12,14,09,58,-3.70
2016,12,14,09,59,-3.70
2016,12,14,10,00,-3.70
2016,12,14,10,01,-3.60
2016,12,14,10,02,-3.60
2016,12,14,10,03,-3.50
2016,12,14,10,04,-3.50
2016,12,14,10,05,-3.40
2016,12,14,10,06,-3.40
2016,12,14,10,07,-3.40
2016,12,14,10,08,-3.30
2016,12,14,10,09,-3.30
2016,12,14,10,10,-3.30
2016,12,14,10,11,-3.20
2016,12,14,10,12,-3.20
2016,12,14,10,13,-3.10
2016,12,14,10,14,-3.10
2016,12,14,10,15,-3.00
2016,12,14,10,16,-3.00
2016,12,14,10,17,-2.90
2016,12,14,10,18,-2.90
2016,12,14,10,19,-2.80
2016,12,14,10,20,-2.80
2016,12,14,10,21,-2.80
2016,12,14,10,22,-2.80
2016,12,14,10,23,-2.80
2016,12,14,10,24,-2.70
2016,12,14,10,25,-2.70
2016,12,14,10,26,-2.70
2016,12,14,10,27,-2.70
2016,12,14,10,28,-2.70
2016,12,14,10,29,-2.70
2016,12,14,10,30,-2.70
2016,12,14,10,31,-2.60
2016,12,14,10,32,-2.60
2016,12,14,10,33,-2.60
2016,12,14,10,34,-2.60
2016,12,14,10,35,-2.60
2016,12,14,10,36,-2.50
2016,12,14,10,37,-2.50
2016,12,14,10,38,-2.50
2016,12,14,10,39,-2.40
2016,12,14,10,40,-2.40
2016,12,14,10,41,-2.40
2016,12,14,10,42,-2.40
2016,12,14,10,43,-2.30
2016,12,14,10,44,-2.30
2016,12,14,10,45,-2.30
2016,12,14,10,46,-2.30
2016,12,14,10,47,-2.30
2016,12,14,10,48,-2.20
2016,12,14,10,49,-2.20
2016,12,14,10,50,-2.20
2016,12,14,10,51,-2.20
2016,12,14,10,52,-2.20
2016,12,14,10,53,-2.20
2016,12,14,10,54,-2.20
2016,12,14,10,55,-2.20
2016,12,14,10,56,-2.10
2016,12,14,10,57,-2.10
2016,12,14,10,58,-2.10
2016,12,14,10,59,-2.10
2016,12,14,11,00,-2.10
2016,12,14,11,01,-2.00
2016,12,14,11,02,-2.00
2016,12,14,11,03,-2.00
2016,12,14,11,04,-1.90
2016,12,14,11,05,-1.90
2016,12,14,11,06,-1.90
2016,12,14,11,07,-1.90
2016,12,14,11,08,-1.80
2016,12,14,11,09,-1.80
2016,12,14,11,10,-1.80
2016,12,14,11,11,-1.80
2016,12,14,11,12,-1.80
2016,12,14,11,13,-1.80
2016,12,14,11,14,-1.70
2016,12,14,11,15,-1.70
2016,12,14,11,16,-1.70
2016,12,14,11,17,-1.70
2016,12,14,11,18,-1.70
2016,12,14,11,19,-1.70
2016,12,14,11,20,-1.70
2016,12,14,11,21,-1.60
2016,12,14,11,22,-1.60
2016,12,14,11,23,-1.60
2016,12,14,11,24,-1.50
2016,12,14,11,25,-1.50
2016,12,14,11,26,-1.40
2016,12,14,11,27,-1.40
2016,12,14,11,28,-1.30
2016,12,14,11,29,-1.30
2016,12,14,11,30,-1.20
2016,12,14,11,31,-1.20
2016,12,14,11,32,-1.20
2016,12,14,11,33,-1.20
2016,12,14,11,34,-1.20
2016,12,14,11,35,-1.20
2016,12,14,11,36,-1.20
2016,12,14,11,37,-1.20
2016,12,14,11,38,-1.10
2016,12,14,11,39,-1.10
2016,12,14,11,40,-1.10
2016,12,14,11,41,-1.10
2016,12,14,11,42,-1.10
2016,12,14,11,43,-1.10
2016,12,14,11,44,-1.10
2016,12,14,11,45,-1.10
2016,12,14,11,46,-1.00
2016,12,14,11,47,-0.90
2016,12,14,11,48,-0.90
2016,12,14,11,49,-0.90
2016,12,14,11,50,-0.90
2016,12,14,11,51,-0.90
2016,12,14,11,52,-0.90
2016,12,14,11,53,-0.90
2016,12,14,11,54,-0.90
2016,12,14,11,55,-0.90
2016,12,14,11,56,-0.90
2016,12,14,11,57,-0.90
2016,12,14,11,58,-0.80
2016,12,14,11,59,-0.80
2016,12,14,12,00,-0.80
2016,12,14,12,01,-0.80
2016,12,14,12,02,-0.80
2016,12,14,12,03,-0.80
2016,12,14,12,04,-0.80
2016,12,14,12,05,-0.80
2016,12,14,12,06,-0.80
2016,12,14,12,07,-0.80
2016,12,14,12,08,-0.80
2016,12,14,12,09,-0.80
2016,12,14,12,10,-0.70
2016,12,14,12,11,-0.70
2016,12,14,12,12,-0.70
2016,12,14,12,13,-0.70
2016,12,14,12,14,-0.70
2016,12,14,12,15,-0.60
2016,12,14,12,16,-0.60
2016,12,14,12,17,-0.60
2016,12,14,12,18,-0.50
2016,12,14,12,19,-0.50
2016,12,14,12,20,-0.50
2016,12,14,12,21,-0.50
2016,12,14,12,22,-0.60
2016,12,14,12,23,-0.60
2016,12,14,12,24,-0.60
2016,12,14,12,25,-0.60
2016,12,14,12,26,-0.60
2016,12,14,12,27,-0.60
2016,12,14,12,28,-0.60
2016,12,14,12,29,-0.60
2016,12,14,12,30,-0.60
2016,12,14,12,31,-0.50
2016,12,14,12,32,-0.50
2016,12,14,12,33,-0.60
2016,12,14,12,34,-0.60
2016,12,14,12,35,-0.60
2016,12,14,12,36,-0.60
2016,12,14,12,37,-0.60
2016,12,14,12,38,-0.50
2016,12,14,12,39,-0.50
2016,12,14,12,40,-0.50
2016,12,14,12,41,-0.40
2016,12,14,12,42,-0.40
2016,12,14,12,43,-0.40
2016,12,14,12,44,-0.40
2016,12,14,12,45,-0.40
2016,12,14,12,46,-0.40
2016,12,14,12,47,-0.40
2016,12,14,12,48,-0.40
2016,12,14,12,49,-0.40
2016,12,14,12,50,-0.40
2016,12,14,12,51,-0.30
2016,12,14,12,52,-0.30
2016,12,14,12,53,-0.30
2016,12,14,12,54,-0.30
2016,12,14,12,55,-0.30
2016,12,14,12,56,-0.20
2016,12,14,12,57,-0.20
2016,12,14,12,58,-0.20
2016,12,14,12,59,-0.20
2016,12,14,13,00,-0.10
2016,12,14,13,01,0.00
2016,12,14,13,02,0.00
2016,12,14,13,03,0.10
2016,12,14,13,04,0.10
2016,12,14,13,05,0.10
2016,12,14,13,06,0.10
2016,12,14,13,07,0.10
2016,12,14,13,08,0.10
2016,12,14,13,09,0.10
2016,12,14,13,10,0.10
2016,12,14,13,11,0.10
2016,12,14,13,12,0.10
2016,12,14,13,13,0.20
2016,12,14,13,14,0.20
2016,12,14,13,15,0.20
2016,12,14,13,16,0.20
2016,12,14,13,17,0.30
2016,12,14,13,18,0.30
2016,12,14,13,19,0.30
2016,12,14,13,20,0.30
2016,12,14,13,21,0.30
2016,12,14,13,22,0.30
2016,12,14,13,23,0.30
2016,12,14,13,24,0.30
2016,12,14,13,25,0.30
2016,12,14,13,26,0.30
2016,12,14,13,27,0.20
2016,12,14,13,28,0.20
2016,12,14,13,29,0.20
2016,12,14,13,30,0.10
2016,12,14,13,31,0.10
2016,12,14,13,32,0.10
2016,12,14,13,33,0.10
2016,12,14,13,34,0.10
2016,12,14,13,35,0.10
2016,12,14,13,36,0.10
2016,12,14,13,37,0.10
2016,12,14,13,38,0.10
2016,12,14,13,39,0.10
2016,12,14,13,40,0.10
2016,12,14,13,41,0.10
2016,12,14,13,42,0.10
2016,12,14,13,43,0.10
2016,12,14,13,44,0.10
2016,12,14,13,45,0.10
2016,12,14,13,46,0.20
2016,12,14,13,47,0.20
2016,12,14,13,48,0.20
2016,12,14,13,49,0.20
2016,12,14,13,50,0.20
2016,12,14,13,51,0.20
2016,12,14,13,52,0.20
2016,12,14,13,53,0.20
2016,12,14,13,54,0.20
2016,12,14,13,55,0.20
2016,12,14,13,56,0.20
2016,12,14,13,57,0.20
2016,12,14,13,58,0.20
2016,12,14,13,59,0.20
2016,12,14,14,00,0.20
2016,12,14,14,01,0.20
2016,12,14,14,02,0.20
2016,12,14,14,03,0.20
2016,12,14,14,04,0.20
2016,12,14,14,05,0.20
2016,12,14,14,06,0.20
2016,12,14,14,07,0.20
2016,12,14,14,08,0.20
2016,12,14,14,09,0.20
2016,12,14,14,10,0.20
2016,12,14,14,11,0.20
2016,12,14,14,12,0.20
2016,12,14,14,13,0.20
2016,12,14,14,14,0.20
2016,12,14,14,15,0.20
2016,12,14,14,16,0.20
2016,12,14,14,17,0.20
2016,12,14,14,18,0.20
2016,12,14,14,19,0.20
2016,12,14,14,20,0.20
2016,12,14,14,21,0.10
2016,12,14,14,22,0.10
2016,12,14,14,23,0.10
2016,12,14,14,24,0.00
2016,12,14,14,25,0.00
2016,12,14,14,26,0.00
2016,12,14,14,27,0.00
2016,12,14,14,28,0.00
2016,12,14,14,29,0.00
2016,12,14,14,30,0.00
2016,12,14,14,31,0.00
2016,12,14,14,32,0.00
2016,12,14,14,33,-0.10
2016,12,14,14,34,-0.10
2016,12,14,14,35,-0.10
2016,12,14,14,36,-0.10
2016,12,14,14,37,-0.10
2016,12,14,14,38,-0.10
2016,12,14,14,39,-0.10
2016,12,14,14,40,-0.10
2016,12,14,14,41,-0.10
2016,12,14,14,42,-0.10
2016,12,14,14,43,-0.10
2016,12,14,14,44,-0.10
2016,12,14,14,45,-0.10
2016,12,14,14,46,-0.10
2016,12,14,14,47,-0.10
2016,12,14,14,48,-0.10
2016,12,14,14,49,-0.10
2016,12,14,14,50,-0.10
2016,12,14,14,51,-0.10
2016,12,14,14,52,-0.10
2016,12,14,14,53,-0.10
2016,12,14,14,54,-0.10
2016,12,14,14,55,-0.10
2016,12,14,14,56,-0.10
2016,12,14,14,57,-0.10
2016,12,14,14,58,-0.10
2016,12,14,14,59,0.00
2016,12,14,15,00,0.00
2016,12,14,15,01,0.00
2016,12,14,15,02,0.00
2016,12,14,15,03,0.00
2016,12,14,15,04,0.00
2016,12,14,15,05,0.00
2016,12,14,15,06,0.00
2016,12,14,15,07,0.00
2016,12,14,15,08,0.00
2016,12,14,15,09,0.00
2016,12,14,15,10,0.00
2016,12,14,15,11,0.00
2016,12,14,15,12,0.00
2016,12,14,15,13,0.00
2016,12,14,15,14,-0.10
2016,12,14,15,15,0.00
2016,12,14,15,16,-0.10
2016,12,14,15,17,-0.10
2016,12,14,15,18,-0.10
2016,12,14,15,19,-0.10
2016,12,14,15,20,-0.10
2016,12,14,15,21,0.00
2016,12,14,15,22,0.00
2016,12,14,15,23,0.00
2016,12,14,15,24,0.00
2016,12,14,15,25,0.00
2016,12,14,15,26,0.10
2016,12,14,15,27,0.10
2016,12,14,15,28,0.10
2016,12,14,15,29,0.10
2016,12,14,15,30,0.10
2016,12,14,15,31,0.10
2016,12,14,15,32,0.10
2016,12,14,15,33,0.10
2016,12,14,15,34,0.10
2016,12,14,15,35,0.00
2016,12,14,15,36,0.00
2016,12,14,15,37,0.00
2016,12,14,15,38,0.00
2016,12,14,15,39,0.00
2016,12,14,15,40,0.00
2016,12,14,15,41,0.00
2016,12,14,15,42,0.00
2016,12,14,15,43,0.00
2016,12,14,15,44,-0.10
2016,12,14,15,45,-0.10
2016,12,14,15,46,-0.10
2016,12,14,15,47,-0.10
2016,12,14,15,48,-0.10
2016,12,14,15,49,-0.10
2016,12,14,15,50,-0.10
2016,12,14,15,51,-0.10
2016,12,14,15,52,-0.10
2016,12,14,15,53,-0.10
2016,12,14,15,54,-0.10
2016,12,14,15,55,-0.20
2016,12,14,15,56,-0.20
2016,12,14,15,57,-0.20
2016,12,14,15,58,-0.20
2016,12,14,15,59,-0.30
2016,12,14,16,00,-0.30
2016,12,14,16,01,-0.30
2016,12,14,16,02,-0.40
2016,12,14,16,03,-0.40
2016,12,14,16,04,-0.40
2016,12,14,16,05,-0.50
2016,12,14,16,06,-0.60
2016,12,14,16,07,-0.60
2016,12,14,16,08,-0.70
2016,12,14,16,09,-0.70
2016,12,14,16,10,-0.70
2016,12,14,16,11,-0.80
2016,12,14,16,12,-0.80
2016,12,14,16,13,-0.80
2016,12,14,16,14,-0.80
2016,12,14,16,15,-0.90
2016,12,14,16,16,-0.90
2016,12,14,16,17,-0.90
2016,12,14,16,18,-1.00
2016,12,14,16,19,-1.00
2016,12,14,16,20,-1.00
2016,12,14,16,21,-1.10
2016,12,14,16,22,-1.10
2016,12,14,16,23,-1.10
2016,12,14,16,24,-1.20
2016,12,14,16,25,-1.20
2016,12,14,16,26,-1.20
2016,12,14,16,27,-1.20
2016,12,14,16,28,-1.20
2016,12,14,16,29,-1.30
2016,12,14,16,30,-1.30
2016,12,14,16,31,-1.30
2016,12,14,16,32,-1.30
2016,12,14,16,33,-1.40
2016,12,14,16,34,-1.40
2016,12,14,16,35,-1.50
2016,12,14,16,36,-1.50
2016,12,14,16,37,-1.60
2016,12,14,16,38,-1.60
2016,12,14,16,39,-1.60
2016,12,14,16,40,-1.70
2016,12,14,16,41,-1.70
2016,12,14,16,42,-1.70
2016,12,14,16,43,-1.70
2016,12,14,16,44,-1.70
2016,12,14,16,45,-1.70
2016,12,14,16,46,-1.80
2016,12,14,16,47,-1.80
2016,12,14,16,48,-1.80
2016,12,14,16,49,-1.80
2016,12,14,16,50,-1.80
2016,12,14,16,51,-1.80
2016,12,14,16,52,-1.80
2016,12,14,16,53,-1.80
2016,12,14,16,54,-1.80
2016,12,14,16,55,-1.80
2016,12,14,16,56,-1.90
2016,12,14,16,57,-1.90
2016,12,14,16,58,-1.90
2016,12,14,16,59,-1.90
2016,12,14,17,00,-1.90
2016,12,14,17,01,-1.90
2016,12,14,17,02,-1.90
2016,12,14,17,03,-1.90
2016,12,14,17,04,-1.90
2016,12,14,17,05,-1.90
2016,12,14,17,06,-1.90
2016,12,14,17,07,-1.90
2016,12,14,17,08,-1.90
2016,12,14,17,09,-1.90
2016,12,14,17,10,-1.90
2016,12,14,17,11,-1.90
2016,12,14,17,12,-2.00
2016,12,14,17,13,-2.00
2016,12,14,17,14,-2.00
2016,12,14,17,15,-2.10
2016,12,14,17,16,-2.10
2016,12,14,17,17,-2.10
2016,12,14,17,18,-2.10
2016,12,14,17,19,-2.10
2016,12,14,17,20,-2.10
2016,12,14,17,21,-2.10
2016,12,14,17,22,-2.10
2016,12,14,17,23,-2.10
2016,12,14,17,24,-2.20
2016,12,14,17,25,-2.20